RH
95 95 94 94 94 93 90 86 84 83 83 83 83 82 81 80 80 80 82 82 81 83 85 84 80 78 86 85 87 89 95 98 97 99 94 93 97 94 95 92 92 86 86
92 92 90 88 86 86 85 83 80 82 81 81 78 76 75 76 74 73 76 78 80 82 84 84 78 83 85 84 84 88 93 95 100 99 96 97 95 92 89 90 78 75 82
90 90 90 88 86 83 82 79 76 77 78 76 74 74 74 74 73 73 73 75 77 80 82 83 84 84 87 87 88 90 92 94 98 97 98 95 96 95 95 87 78 79 76
89 88 89 86 84 80 77 76 75 74 75 75 74 75 76 76 76 76 76 75 78 79 82 81 81 83 86 87 89 90 91 92 94 96 96 96 93 94 90 90 86 76 69
86 86 87 84 80 78 78 77 75 74 76 76 76 77 78 80 78 79 80 80 80 81 82 80 82 84 85 83 87 87 88 92 95 98 98 96 98 99 98 92 92 86 77
83 84 83 80 79 80 80 80 78 80 80 78 80 79 82 82 83 86 82 81 84 84 85 82 80 82 81 82 82 82 84 89 96 98 100 98 94 94 96 94 90 86 85
80 80 79 77 79 80 80 80 82 83 83 86 84 81 83 84 84 85 86 85 89 89 92 91 85 79 80 76 78 79 80 83 86 88 93 91 91 87 93 94 86 84 83
82 81 79 78 80 81 81 83 88 87 96 96 98 94 89 84 82 79 86 86 82 81 85 86 84 82 80 81 80 80 82 77 82 75 90 87 88 86 87 90 84 79 74
84 82 81 79 83 83 87 89 87 90 99 99 93 95 94 86 83 82 88 84 82 80 80 78 78 82 80 82 82 83 78 80 74 82 78 77 77 82 80 82 84 85 80
83 83 81 82 82 85 86 91 99 91 99 96 96 89 94 89 87 83 87 81 81 78 77 73 73 72 84 81 78 70 74 78 83 81 80 80 81 79 74 75 84 97 89
84 85 86 85 86 86 92 98 98 97 95 96 93 88 87 89 83 84 82 85 84 82 78 75 70 73 74 80 80 69 65 70 82 78 79 79 78 78 78 76 73 97 97
86 87 88 88 87 87 93 97 93 90 90 94 92 91 86 83 86 85 83 82 86 85 83 74 71 74 74 77 74 81 75 68 80 78 81 83 82 84 84 86 81 83 80
86 87 87 87 87 86 93 95 91 90 91 94 95 94 87 87 81 84 83 82 81 91 81 75 72 69 68 70 75 73 72 80 75 80 82 87 87 88 93 91 93 94 96
84 85 87 87 88 86 90 90 87 90 91 96 96 96 89 88 86 85 82 80 80 84 88 84 76 69 69 71 77 71 67 72 77 77 77 81 87 91 87 87 90 90 91
93 94 93 92 90 89 90 88 86 84 89 95 95 94 91 91 90 84 85 84 80 81 85 79 75 68 68 72 77 75 70 69 81 77 79 82 82 86 86 88 89 90 87
90 91 92 92 92 96 93 88 88 89 87 87 85 86 89 85 84 83 83 84 84 83 86 83 82 76 72 68 73 75 74 75 79 84 82 82 85 89 90 91 91 90 88
92 92 89 86 88 91 93 96 98 90 90 91 90 89 88 90 89 89 88 88 87 86 97 95 93 88 82 77 76 80 83 81 92 92 90 89 89 89 89 92 92 90 90
92 90 93 92 93 91 92 94 95 96 93 91 86 89 89 89 90 89 88 90 98 94 97 98 97 92 88 84 82 86 85 85 88 90 92 92 92 91 92 92 91 92 90
93 96 96 98 98 96 96 95 95 95 96 95 94 90 90 89 91 88 86 98 99 98 97 97 94 91 87 88 87 87 89 90 92 92 92 93 93 93 92 89 89 86 87
80 87 90 98 98 99 99 99 99 99 99 99 99 98 99 98 100 99 98 99 99 99 99 97 94 93 94 94 93 91 93 92 93 93 91 91 92 92 91 89 86 89 86
80 87 84 95 99 98 99 99 99 99 99 99 99 99 97 99 99 99 99 99 99 99 99 98 97 95 96 97 97 96 95 93 93 94 93 91 91 94 86 84 84 85 84
79 82 82 86 89 88 95 98 99 99 99 99 99 100 98 99 100 99 99 99 99 99 99 99 99 98 97 99 99 99 96 95 94 93 92 92 90 87 85 86 84 86 87
77 77 76 77 77 80 83 83 89 86 87 90 93 97 98 99 99 99 99 99 99 99 99 99 99 99 99 100 100 100 100 97 98 98 94 93 91 88 88 88 85 85 84
74 75 76 76 76 77 78 81 80 77 78 79 82 82 83 82 82 86 90 91 98 98 99 99 99 99 99 100 100 100 100 100 100 100 99 98 95 91 91 88 84 84 81
73 72 74 76 77 76 76 79 80 80 82 79 79 83 82 78 78 79 80 86 92 88 87 91 96 98 98 99 100 100 100 99 100 98 99 99 97 95 94 94 89 85 84
72 71 72 75 80 78 78 82 88 89 91 86 85 87 88 86 82 85 87 90 94 88 91 90 89 94 91 90 88 85 86 94 98 99 99 98 96 95 94 95 95 94 95
Wind_Speed
7 7 10 9 10 9 9 8 8 9 9 10 10 10 9 8 7 8 7 6 5 4 3 3 1 3 2 2 2 2 3 3 5 0 1 2 4 6 5 3 2 1 1
8 9 9 10 9 10 10 10 9 10 9 10 10 10 9 8 8 8 8 6 5 4 3 2 1 2 3 3 2 3 3 2 2 3 1 1 2 4 6 6 2 2 1
8 10 10 9 9 11 11 10 9 10 10 9 9 9 9 8 8 8 8 6 5 4 4 4 4 4 3 3 3 4 3 2 1 2 2 1 1 2 2 2 3 2 1
8 8 9 9 9 10 9 10 9 9 10 9 9 9 8 8 8 7 8 6 6 4 5 4 4 3 3 4 3 3 3 3 1 1 2 2 1 1 2 2 2 1 1
8 8 8 8 9 10 10 9 9 9 9 9 9 9 8 7 5 7 8 5 5 4 3 2 2 2 3 3 2 3 3 3 2 2 2 1 2 2 5 3 2 2 1
7 7 7 9 9 9 10 10 9 8 8 8 8 8 8 5 12 12 8 5 4 3 3 3 3 4 4 5 2 3 4 4 3 2 2 3 3 3 3 4 3 3 3
8 9 9 9 10 8 8 9 9 8 7 8 6 7 8 6 11 11 10 4 3 2 2 2 3 3 4 4 4 4 4 7 6 4 4 4 3 5 5 4 3 3 2
5 6 6 8 9 8 9 9 8 7 8 6 4 6 6 3 7 8 9 4 3 1 1 1 1 3 4 4 4 4 2 2 4 3 4 5 4 2 5 4 5 5 4
7 7 8 8 9 8 7 7 6 7 5 3 4 5 5 4 5 6 7 4 2 1 1 1 1 2 4 3 1 3 3 1 2 7 5 3 4 4 7 6 4 5 2
3 4 5 6 8 7 7 8 4 5 6 5 5 4 5 4 5 5 7 3 2 0 0 1 2 3 5 4 3 2 3 2 1 2 3 5 7 5 4 1 4 6 3
6 6 5 5 6 6 6 3 5 5 6 5 5 4 3 6 5 7 8 4 3 3 2 1 1 4 5 4 6 3 3 2 1 2 1 2 3 3 3 3 1 1 2
3 5 5 4 4 5 7 5 6 7 7 6 3 3 5 5 8 8 7 7 7 4 3 2 2 6 5 5 4 7 5 3 2 1 1 0 0 1 2 3 3 3 2
4 4 5 5 4 5 7 7 5 5 4 4 4 4 3 3 4 6 6 8 8 3 3 5 6 7 6 5 6 5 4 3 2 2 2 1 1 2 3 3 4 6 6
2 2 3 4 4 4 2 3 4 5 5 4 3 4 4 3 3 3 3 3 5 4 3 4 4 3 5 5 4 1 1 3 4 3 2 1 2 3 2 2 2 2 2
3 2 1 2 3 4 4 5 5 4 4 4 5 4 3 4 3 5 4 2 3 4 3 1 1 2 3 3 3 3 2 2 4 3 3 4 3 3 3 2 2 2 2
2 2 1 1 3 2 1 3 6 8 9 10 8 6 4 7 5 5 7 8 8 8 3 3 3 4 5 4 4 4 4 5 4 4 4 4 4 5 5 3 2 3 3
4 3 2 2 1 1 3 3 3 4 9 10 10 11 10 8 9 9 11 11 10 7 3 3 4 4 4 5 5 5 5 5 4 5 5 5 5 5 6 5 5 4 5
3 5 2 2 2 2 2 2 2 3 3 2 6 8 9 9 7 7 9 10 3 5 3 4 5 5 4 5 5 6 5 4 5 5 6 6 6 6 6 6 6 7 7
3 2 2 2 2 3 2 3 3 3 3 3 2 3 4 8 7 8 10 3 4 5 5 5 5 5 5 5 6 6 6 6 5 5 6 6 6 7 7 6 7 11 10
4 6 4 2 2 2 2 2 2 3 3 3 3 3 2 3 2 3 3 3 2 3 4 5 5 4 4 5 5 6 5 6 6 6 6 6 6 6 7 7 8 7 8
3 3 6 3 2 2 2 2 3 2 2 3 3 3 6 4 3 4 4 3 3 4 4 5 4 4 5 5 5 5 6 6 6 6 6 6 7 7 8 7 7 8 8
2 2 3 2 3 3 3 2 2 2 2 2 1 1 3 0 1 2 2 2 3 4 3 3 3 4 5 5 5 5 6 7 6 7 7 7 7 8 7 8 7 8 8
2 3 2 2 3 4 3 3 3 3 3 3 3 3 2 2 2 2 2 2 2 3 3 3 3 4 3 4 5 5 6 6 6 6 7 7 7 7 7 8 9 9 9
2 3 3 3 3 3 3 3 3 4 3 3 3 3 3 3 4 5 4 4 3 3 2 2 3 4 4 4 4 4 5 6 5 6 9 7 7 8 7 8 9 10 9
1 2 3 3 3 3 4 3 3 3 3 2 3 2 1 3 4 4 4 3 3 3 5 5 5 6 6 8 6 7 8 12 9 8 6 9 10 10 9 8 9 9 11
2 3 3 3 3 3 4 4 4 3 3 4 4 3 2 4 5 5 5 4 2 4 4 3 4 6 6 6 8 12 14 13 9 11 8 8 8 8 8 10 13 8 10
Wind_Direction
128 135 134 134 127 126 121 116 112 118 122 121 125 123 118 113 112 110 100 97 99 94 75 57 335 327 315 313 311 278 266 253 267 263 284 164 175 164 157 146 145 99 102
122 116 114 116 117 112 115 120 124 119 114 122 124 117 116 104 96 103 100 88 93 106 94 91 24 352 343 339 333 320 300 298 281 246 166 138 210 190 176 142 145 122 152
120 121 118 117 117 118 121 125 121 124 117 112 109 111 109 108 106 91 93 97 98 91 85 78 48 18 355 339 334 318 315 289 233 180 176 121 151 161 153 103 121 97 58
110 115 119 121 123 119 119 116 117 114 110 107 105 107 106 115 106 108 96 98 88 74 66 63 61 35 358 333 327 326 315 298 262 179 160 156 160 168 147 143 150 122 104
110 118 116 113 115 116 109 105 106 107 112 115 115 107 103 96 103 102 92 87 81 75 68 49 32 357 337 324 310 310 302 288 276 214 165 167 181 170 198 148 132 121 128
104 100 111 116 114 110 115 116 108 102 102 106 104 117 119 111 103 100 94 93 82 68 52 23 4 349 333 331 358 350 301 284 264 238 201 206 198 187 148 165 122 150 202
125 135 131 125 117 115 114 114 117 116 113 99 120 133 113 98 109 109 103 97 96 44 57 40 7 352 332 333 332 10 12 349 327 277 252 236 228 199 155 161 162 163 177
119 116 124 126 124 134 133 129 122 122 129 140 122 89 105 131 130 130 119 124 137 151 68 58 302 330 314 313 317 312 326 329 333 301 275 277 270 231 187 182 168 114 83
153 157 156 142 133 135 132 133 128 124 111 136 142 149 153 157 165 160 149 161 168 130 73 46 325 295 297 302 298 297 302 315 21 31 25 325 287 209 155 121 146 153 148
159 150 137 136 141 146 149 147 138 138 143 154 160 168 173 174 205 184 166 192 176 338 55 49 308 296 275 270 197 252 282 290 352 11 7 22 32 86 102 9 163 169 125
149 144 141 151 154 147 136 133 135 126 142 159 176 180 196 220 215 209 198 191 201 213 224 280 266 277 275 277 205 208 231 174 137 101 89 65 56 51 39 41 102 105 150
140 137 143 150 155 152 137 139 151 158 167 176 168 218 228 228 228 226 217 220 217 215 223 211 232 255 259 266 259 213 232 172 150 171 202 138 58 60 48 54 69 79 55
139 151 152 147 145 157 161 167 162 165 167 192 202 221 243 211 236 239 241 240 250 224 197 215 227 241 256 271 276 225 225 163 168 207 237 213 196 133 122 85 73 80 71
87 117 145 148 161 160 151 161 176 187 198 197 201 231 234 231 225 223 218 253 260 266 215 218 215 233 241 244 249 253 160 203 203 216 227 161 139 165 164 135 126 127 112
91 109 137 178 200 188 203 197 201 212 185 189 218 214 223 231 229 208 190 202 244 242 179 168 196 232 243 238 229 223 219 219 214 199 204 184 189 195 190 163 143 164 180
81 64 51 138 231 216 223 255 230 230 225 222 217 202 220 226 213 228 238 244 247 237 184 203 224 232 242 242 236 236 228 230 220 207 206 204 198 195 194 181 172 199 201
31 11 4 10 352 237 217 221 230 230 234 229 232 237 241 239 235 241 248 245 239 236 215 197 221 215 230 236 241 234 237 225 203 214 212 208 208 203 198 199 199 204 218
8 16 25 352 328 308 281 256 243 237 243 243 240 239 241 243 245 248 263 244 211 232 188 212 217 216 213 230 235 234 240 238 223 221 221 216 209 206 201 208 203 207 213
354 10 356 346 319 303 281 277 257 246 245 250 243 252 246 253 257 252 244 225 208 213 217 221 220 217 219 221 230 229 227 229 221 217 218 211 210 206 216 216 210 210 209
348 347 356 1 336 334 319 295 276 253 244 238 233 232 202 233 199 208 221 214 209 234 221 228 221 211 216 225 231 230 227 231 225 215 222 218 213 208 217 215 212 212 217
339 337 344 347 331 326 316 317 294 268 254 246 248 239 245 224 219 216 219 215 221 229 229 233 227 218 218 220 221 225 227 232 222 221 218 216 213 216 218 220 217 214 217
341 341 334 339 334 322 322 341 336 317 293 273 275 283 321 252 218 224 232 237 238 243 241 243 241 231 224 222 219 222 228 231 227 221 221 217 216 219 216 218 219 217 213
337 340 338 337 332 333 341 343 348 350 357 8 8 3 12 15 7 334 293 280 269 258 250 246 253 258 238 230 223 228 234 237 235 220 221 219 217 218 213 217 216 217 217
346 338 329 325 321 337 333 336 346 352 2 359 352 15 28 19 10 1 359 355 349 335 297 263 263 264 284 271 250 235 236 240 232 231 224 224 221 222 217 218 219 222 226
304 313 312 310 309 311 315 311 310 316 308 314 318 322 355 347 335 321 311 312 325 349 359 357 353 343 340 326 285 257 254 251 244 239 231 230 230 221 218 218 220 224 223
308 309 301 296 294 303 307 305 302 305 307 300 297 281 291 309 306 302 301 302 305 328 308 300 303 307 331 335 325 319 323 321 296 268 254 235 229 232 225 225 222 221 221